User: anonymous   Login
Location: Unspecified
(0.0000°N, 0.0000°E)
Time: 15:59:58
(UTC+00:00)
Language:

SOMP - Orbit

View from above orbital plane
View from above orbital plane
View from above satellite
View from above satellite

Ground track
Ground track

The orbit data is extracted from the following two-line orbital elements,

1 39135U 13015F   19078.52566401 +.00000767 +00000-0 +48131-4 0  9996
2 39135 064.8694 332.7874 0009917 297.2515 062.7600 15.17266545326410
Epoch (UTC): 19 March 2019 12:36:57
Eccentricity: 0.0009917
inclination: 64.8694°
perigee height: 507 km
apogee height: 521 km
right ascension of ascending node: 332.7874°
argument of perigee: 297.2515°
revolutions per day: 15.17266545
mean anomaly at epoch: 62.7600°
orbit number at epoch: 32641

The dashed part of the orbit path shows where the satellite is in the earth's shadow,  

DLR